Theta_e
319 322 328 330 329 334 340 342 344 349 348 347 348 350 349 349 349 349 348 344 338 338 340 339 337 338 334 334 334 333 331 330 324 328 332 330 330 332 334 335 334 338 333
318 321 323 330 331 334 338 340 345 346 347 346 348 349 348 348 349 347 343 340 338 338 338 338 336 334 336 336 333 333 332 332 328 327 326 327 328 330 332 331 331 334 335
317 317 319 327 331 334 338 340 342 345 346 346 347 348 347 347 346 345 342 338 340 340 339 337 336 336 335 334 333 332 331 330 331 329 323 328 327 328 327 328 327 328 330
316 314 318 327 332 333 338 341 345 345 345 346 347 347 347 346 344 343 341 338 340 339 338 337 337 336 335 334 333 333 330 329 329 329 324 324 326 326 327 324 322 326 325
314 313 317 332 332 333 337 340 344 345 345 346 346 347 347 345 342 341 336 337 339 336 337 336 337 333 326 329 332 332 331 328 327 324 324 325 323 322 323 326 321 321 324
312 311 317 335 330 334 338 341 343 343 344 345 345 346 344 342 312 317 333 339 337 336 334 335 336 324 323 313 315 319 327 329 328 324 324 322 324 324 324 324 321 322 320
310 311 322 334 331 334 338 340 341 342 343 344 345 345 344 342 309 310 316 338 337 337 336 336 334 332 327 331 312 310 312 312 319 332 329 326 327 328 326 324 325 324 319
309 313 325 332 332 335 336 336 336 338 340 341 342 344 343 335 306 307 311 338 337 337 338 337 336 334 333 329 330 330 330 329 329 329 332 330 333 332 330 329 330 325 324
311 322 329 333 332 331 333 333 335 337 338 338 340 340 333 324 306 303 320 331 330 334 335 335 334 332 308 305 332 331 330 327 307 304 304 306 305 310 320 325 320 318 318
320 322 330 333 334 333 335 336 338 338 336 336 337 332 321 326 299 302 321 333 333 332 333 330 308 324 299 300 332 330 327 326 324 325 323 312 314 318 309 330 322 320 320
324 323 328 334 335 335 334 334 334 332 334 332 326 329 331 327 313 301 308 332 332 331 329 326 327 300 297 298 307 330 325 322 316 325 325 324 326 324 324 329 323 321 320
324 323 329 332 331 331 331 332 332 332 328 325 327 322 322 320 306 301 302 313 317 331 329 330 322 297 296 297 309 299 300 311 323 322 321 320 320 320 324 327 327 326 326
322 322 326 328 328 329 329 327 328 329 326 328 326 320 318 320 317 298 298 300 304 330 331 313 297 295 295 302 297 298 303 320 322 321 320 320 321 323 323 322 323 324 324
322 323 325 326 327 329 329 328 328 329 328 327 325 323 322 322 322 320 317 316 305 313 306 311 310 308 303 309 309 311 324 323 322 323 323 321 323 320 320 322 321 323 321
322 325 324 325 326 320 314 325 330 331 326 327 327 325 324 323 323 315 316 327 329 317 314 317 322 320 319 316 317 321 323 322 321 321 321 319 319 319 319 321 321 320 320
319 324 323 320 320 319 320 315 296 299 298 300 306 319 324 305 299 298 298 297 298 300 320 321 322 321 319 318 317 318 319 318 321 321 320 320 319 319 318 318 320 320 320
319 324 323 319 322 322 324 322 313 303 295 295 297 298 302 300 296 296 296 296 296 304 320 319 320 321 320 320 319 319 316 317 322 321 321 319 319 319 316 320 318 319 315
322 309 323 324 326 326 327 325 323 319 316 314 296 298 294 294 294 293 295 301 315 313 320 320 320 320 319 318 319 319 315 316 320 321 321 320 321 319 317 316 316 315 315
322 325 327 327 327 323 324 324 324 322 318 309 307 298 294 292 293 294 297 322 321 322 322 321 322 321 320 319 318 319 319 318 317 321 319 318 319 317 316 316 316 303 309
326 311 318 326 324 325 325 321 320 319 316 317 313 308 307 309 314 317 319 319 319 320 319 318 318 319 319 319 320 319 317 313 315 317 319 318 318 318 316 317 317 317 320
324 324 309 328 328 328 326 322 320 320 316 315 313 310 297 317 316 317 319 319 321 320 319 320 320 320 319 320 320 318 316 316 316 318 319 320 320 318 316 317 318 318 321
326 328 328 327 327 326 325 324 322 319 315 312 311 304 293 320 320 320 313 307 306 306 313 319 310 310 311 315 319 320 318 318 321 321 320 322 323 322 323 322 319 319 318
328 327 327 327 326 313 323 322 318 316 315 314 314 314 317 315 310 305 301 299 299 298 299 299 300 300 301 302 305 307 319 321 321 322 321 322 321 320 321 320 320 321 320
328 327 326 325 325 324 321 316 314 307 313 314 313 309 306 303 300 297 297 296 295 296 295 295 294 295 295 298 299 301 303 304 308 314 318 324 321 317 322 320 320 318 318
328 327 327 325 325 321 316 313 313 312 308 307 305 303 300 298 297 295 294 294 293 292 292 292 293 292 292 292 292 293 288 287 302 297 317 321 319 319 318 316 314 312 311
319 321 322 321 319 317 313 307 304 303 300 299 299 298 297 295 293 292 292 292 291 290 289 290 290 290 290 290 287 286 287 288 293 290 303 303 301 302 302 302 301 301 300
Wind_Speed
17 19 20 18 18 16 16 15 15 14 15 15 14 15 15 15 14 13 11 12 10 10 9 10 9 8 6 5 5 5 5 4 5 3 2 2 2 4 5 4 3 4 4
17 18 21 21 19 17 16 16 15 16 16 15 15 15 15 15 15 14 13 12 12 12 11 10 9 7 8 6 6 6 5 5 4 5 2 2 2 4 5 6 3 4 3
18 16 18 21 20 18 16 15 16 16 16 16 16 16 17 17 16 14 14 14 13 12 11 10 10 10 8 7 6 6 5 4 4 3 4 2 2 3 4 5 5 5 5
19 16 18 23 20 18 16 16 17 18 17 16 16 17 17 17 16 15 14 11 12 10 10 10 10 10 9 9 7 7 6 6 5 4 4 4 2 3 5 4 3 3 3
20 17 19 22 18 18 17 17 16 16 16 16 16 17 17 15 13 15 12 11 11 10 10 9 9 8 7 8 6 7 8 7 6 5 5 5 3 3 5 4 3 2 3
19 19 21 19 17 18 17 17 16 16 16 16 17 18 18 12 17 17 15 12 11 11 11 9 8 7 7 6 7 7 8 9 8 6 5 7 7 6 4 6 5 6 2
20 21 21 14 17 18 18 17 17 15 15 16 17 18 17 14 18 16 13 11 11 11 11 10 8 6 7 8 6 4 6 5 2 7 7 8 9 10 7 9 9 6 2
23 24 18 11 15 15 15 14 13 14 17 17 16 17 16 11 14 16 14 12 9 10 10 10 8 8 8 8 9 8 8 9 8 5 5 6 9 10 11 6 6 7 7
24 13 10 11 12 15 15 15 15 15 14 15 15 17 13 12 11 14 12 9 8 8 8 8 7 7 9 9 10 9 7 6 4 5 2 1 7 10 10 9 8 8 3
15 10 4 12 15 14 15 17 14 13 12 12 14 12 14 12 10 14 11 8 11 8 8 7 3 5 9 9 8 8 7 6 6 7 5 4 8 10 12 10 8 8 7
13 8 9 7 12 13 12 11 13 13 15 14 13 10 12 13 11 11 13 10 9 9 8 6 5 7 8 8 5 6 4 7 6 6 6 6 7 7 7 7 6 6 8
12 7 3 7 7 9 14 12 14 16 15 13 14 10 8 9 8 6 8 7 10 9 9 7 7 8 7 8 6 9 10 8 6 5 6 5 5 6 5 6 6 4 3
4 8 4 8 8 10 14 13 12 12 13 13 12 10 9 7 6 7 8 11 7 8 7 9 11 9 8 6 8 10 9 5 6 6 5 3 4 5 6 5 5 6 5
7 7 5 9 11 12 10 10 11 11 13 12 12 10 9 8 8 6 7 7 10 9 12 7 8 8 5 7 6 6 5 5 4 5 6 5 4 5 4 5 5 6 4
5 4 7 8 10 11 9 8 11 11 11 12 11 11 11 8 8 9 9 9 8 9 10 6 6 5 5 4 4 4 5 5 5 4 5 5 4 4 3 5 5 5 4
4 4 6 8 9 10 10 11 21 12 13 12 12 10 6 12 14 11 11 12 15 14 6 7 6 6 6 5 5 4 3 5 4 6 5 6 6 6 5 4 4 5 6
4 7 9 9 9 10 10 12 10 11 19 16 13 13 12 13 13 13 14 15 9 5 5 5 4 5 5 5 6 5 4 3 6 5 5 6 6 5 5 5 5 5 2
12 11 11 8 10 10 11 11 10 10 9 8 14 9 14 15 15 16 15 11 6 3 5 5 4 4 4 4 5 4 4 3 5 5 5 5 5 5 5 5 5 5 5
17 11 13 12 11 11 10 10 9 10 10 8 7 9 9 13 14 11 4 5 5 4 4 4 3 4 4 4 4 4 5 6 5 5 5 5 5 5 4 4 4 5 6
15 17 13 12 12 12 10 10 10 10 9 9 8 8 7 8 6 5 4 4 4 3 3 3 3 3 3 4 4 5 4 4 4 4 5 4 4 5 4 4 4 5 6
13 13 14 13 12 12 11 11 11 10 9 8 8 7 8 9 7 6 5 5 4 3 4 3 3 3 3 3 4 4 4 4 4 5 5 5 6 6 4 4 4 4 5
13 13 13 13 12 12 12 12 11 11 11 10 8 5 8 8 7 8 8 7 6 6 5 6 6 5 5 4 2 5 5 5 6 5 4 5 4 3 3 5 6 4 4
12 14 13 12 12 13 12 11 11 11 10 11 10 7 8 9 9 9 9 8 7 7 8 8 7 6 6 6 6 5 2 4 3 3 4 3 4 4 4 4 5 4 4
13 13 13 13 12 13 12 11 10 10 11 10 10 10 10 10 10 11 10 8 8 8 9 8 8 10 7 7 6 5 4 4 3 3 2 2 3 3 2 2 3 4 3
12 12 12 13 13 12 12 11 11 11 10 11 11 10 11 11 11 11 10 9 9 10 12 10 8 12 14 15 13 12 10 6 5 4 4 3 5 8 7 6 8 8 9
13 11 11 11 12 12 12 11 11 11 11 11 10 11 11 12 11 11 10 11 10 11 12 10 13 19 17 15 15 13 12 11 9 8 9 9 9 8 8 9 12 8 8
Wind_Direction
307 302 294 284 271 246 233 223 213 204 193 190 180 168 169 168 167 178 174 171 164 169 181 187 186 176 178 175 181 194 197 216 236 129 58 88 79 129 137 115 141 151 143
305 300 294 288 273 244 226 216 206 203 192 183 177 170 165 168 172 173 169 168 169 175 182 185 183 177 173 178 186 196 200 194 214 189 138 147 108 124 127 122 111 119 149
305 300 287 283 266 240 224 209 200 193 184 176 175 168 170 172 172 175 174 167 179 175 181 185 182 179 178 183 193 192 184 183 184 184 146 138 105 140 114 100 98 103 91
303 296 284 280 252 232 216 199 195 186 175 176 176 169 173 171 170 170 169 163 172 172 174 186 180 185 190 185 192 195 183 178 172 162 160 146 133 135 133 133 112 101 94
302 299 289 278 242 224 210 197 190 178 176 174 166 172 169 169 165 162 158 155 167 164 172 179 180 190 189 186 191 188 179 186 181 161 163 159 155 158 168 153 125 123 70
303 299 286 261 229 212 199 187 179 170 165 167 172 170 165 170 147 152 162 165 166 169 170 174 172 179 176 176 202 199 180 183 182 174 175 183 181 182 155 153 154 150 135
301 298 287 234 214 199 182 177 169 156 154 165 173 165 166 157 149 145 155 157 167 172 175 174 178 175 174 182 176 178 195 211 182 187 194 186 194 186 167 167 180 161 110
302 288 281 206 197 182 167 162 151 149 163 163 164 162 153 153 151 158 150 160 165 173 177 173 177 168 172 178 179 179 194 191 194 201 233 203 208 174 180 184 178 112 111
267 262 246 184 166 165 153 151 152 154 155 154 151 149 136 142 165 144 161 138 143 151 152 162 167 167 147 186 185 176 186 166 69 67 328 9 131 152 158 145 160 143 130
287 310 227 166 158 153 150 146 145 144 137 133 138 133 128 143 155 158 147 161 153 146 149 138 70 148 159 180 189 173 185 174 168 153 126 110 163 165 165 189 169 170 155
320 319 314 161 156 144 129 128 129 126 127 127 109 119 136 143 155 163 152 166 158 156 154 158 142 141 158 173 208 172 176 146 141 143 140 149 165 162 180 173 163 153 175
313 310 274 128 135 129 131 127 128 129 121 114 120 113 119 119 124 146 146 149 151 160 162 152 126 152 154 159 179 116 136 139 146 146 152 155 163 166 167 166 158 127 70
318 305 166 128 128 136 132 122 128 127 125 137 131 126 125 129 126 103 111 126 149 157 139 109 112 129 138 124 124 138 145 140 144 152 157 140 157 156 140 127 123 123 101
248 277 160 133 130 129 127 124 123 133 136 134 136 134 138 144 140 139 123 116 113 99 112 119 113 113 85 105 115 156 155 164 163 166 159 148 135 144 149 161 165 161 157
240 193 151 130 119 98 65 100 130 138 139 145 147 149 148 152 155 146 152 159 148 132 124 133 136 137 130 135 149 172 153 156 154 155 149 153 150 152 155 174 163 168 177
188 147 123 122 114 115 110 80 38 56 76 93 121 138 115 108 120 127 115 107 121 145 131 154 157 165 164 162 169 163 157 171 166 167 162 169 174 178 161 169 170 197 197
176 154 129 125 122 131 126 119 101 55 64 59 73 85 99 131 131 124 118 119 126 136 131 148 160 168 172 174 177 173 166 177 166 177 173 174 175 171 169 182 183 188 180
196 174 136 135 138 134 135 131 129 118 115 103 40 81 108 124 118 121 124 120 129 144 158 166 182 165 167 172 176 178 149 146 186 183 174 183 189 178 183 182 184 186 182
152 150 145 148 136 130 131 127 122 120 119 116 114 69 70 90 100 109 155 150 139 134 144 160 165 164 171 174 171 171 167 173 187 182 173 180 186 171 174 177 185 195 199
138 132 140 132 134 131 124 120 123 121 127 123 115 124 136 125 127 125 107 117 126 124 131 133 148 157 168 178 176 161 157 152 162 182 175 179 189 183 174 175 190 187 204
130 137 125 127 131 132 129 130 130 127 118 116 125 141 120 125 126 127 127 120 112 119 146 132 89 121 153 152 156 153 150 160 168 181 178 185 181 183 180 192 198 212 194
127 128 124 126 128 130 128 127 127 124 117 112 109 105 120 122 128 94 73 58 47 35 23 75 58 42 33 40 104 162 148 157 175 171 182 216 178 204 225 191 183 202 198
123 123 124 127 118 121 120 120 124 121 120 119 117 111 110 98 86 79 73 58 45 45 42 49 50 42 34 26 28 23 96 130 123 168 174 203 177 197 199 209 227 220 195
125 124 122 127 133 124 119 114 112 114 115 106 105 98 93 89 87 80 76 66 63 60 58 53 50 49 32 39 33 23 7 15 0 22 358 228 196 181 209 215 191 205 224
113 116 117 123 126 112 107 110 116 109 100 100 101 99 97 91 87 83 79 74 71 66 61 56 51 48 47 47 43 38 16 21 58 45 60 60 57 50 59 59 59 60 53
99 96 104 109 115 114 110 102 99 95 94 91 90 89 90 90 87 84 81 79 78 74 71 61 56 56 51 43 31 25 28 35 42 33 76 73 68 62 65 68 71 68 55